Location: Ottawa
(45.4167°N, 75.7000°W)
Time: 08:25:30
(UTC-04:00)

Tiangong 1 - Pass Details

Date: 09 October 2017
Orbit: 293 x 320 km, 42.8° (Epoch: 21 October)

Event Time Altitude Azimuth Distance (km) Brightness Sun altitude
Rises 20:43:51 0° 268° (W) 2,031 5.9 -24.5°
Reaches altitude 10° 20:45:53 10° 260° (W) 1,196 4.4 -24.9°
Enters shadow 20:46:17 13° 257° (WSW) 1,040 4.0 -24.9°
